Hourly Data Report for September 03, 2017

All times are specified in Local Standard Time (LST). Add 1 hour to adjust for Daylight Saving Time where and when it is observed.

GRISE FIORD CLIMATE
NUNAVUT

76°25'22.040" N
82°54'08.020" W
44.50 m
2402351
71971
NGC

Download Data

Hourly Data (September 2017)
Hourly Data Report for September 3, 2017
Temp Definition
°C
Dew Point Temp Definition
°C
Rel Hum Definition
%
Wind Dir Definition
10's deg

Wind Spd Definition
km/h
Visibility Definition
km
Stn Press Definition
kPa
Hmdx Definition


Wind Chill Definition


Weather Definition


TIME
00:00 0.4 -1.4 88 8 2   100.26     LegendNANA
01:00 0.7 -1.3 87 15 7   100.26     LegendNANA
02:00 0.6 -1.3 87 14 10   100.24     LegendNANA
03:00 0.4 -1.3 88 17 8   100.27     LegendNANA
04:00 0.0 -1.0 93 24 10   100.27   -3 LegendNANA
05:00 0.2 -1.1 91 22 9   100.27     LegendNANA
06:00 0.2 -1.1 91 20 7   100.26     LegendNANA
07:00 0.3 -1.5 88 11 13   100.25     LegendNANA
08:00 0.8 -2.2 81 16 7   100.26     LegendNANA
09:00 0.6 -2.3 81 11 5   100.27     LegendNANA
10:00 0.7 -2.1 81 17 3   100.25     LegendNANA
11:00 0.8 -1.9 82 15 4   100.25     LegendNANA
12:00 1.3 -1.9 79 17 4   100.25     LegendNANA
13:00 1.5 -1.7 79 11 5   100.28     LegendNANA
14:00 2.3 -4.9 59 35 11   100.31     LegendNANA
15:00 2.9 -5.1 56 33 14   100.37     LegendNANA
16:00 2.5 -5.9 54 34 16   100.40     LegendNANA
17:00 2.1 -5.2 58 33 19   100.45     LegendNANA
18:00 1.3 -5.6 60 32 25   100.48     LegendNANA
19:00 0.5 -6.0 62 35 27   100.54     LegendNANA
20:00 -0.2 -7.4 58 30 18   100.59   -5 LegendNANA
21:00 -1.4 -8.6 58 32 16   100.65   -6 LegendNANA
22:00 -2.5 -9.7 58 4 30   100.71   -10 LegendNANA
23:00 -2.8 -10.3 56 5 21   100.70   -9 LegendNANA

Notes on Data Quality.

Legend

  • E = Estimated
  • M = Missing
  • NA = Not Available
  • ‡ = Partner data that is not subject to review by the National Climate Archives
Date modified: